Tracking 31027 objects as of 19-Jul-2025
HD Live streaming from Space Station
objects crossing your sky now

STARLINK-31406

Track STARLINK-31406 now!
10-day predictions
STARLINK-31406 is classified as:


NORAD ID: 59017
Int'l Code: 2024-036V
Perigee: 453.5 km
Apogee: 455.3 km
Inclination: 53.2 °
Period: 93.5 minutes
Semi major axis: 6825 km
RCS: Unknown
Launch date: February 23, 2024
Source: United States (US)
Launch site: AIR FORCE WESTERN TEST RANGE (AFWTR)
Your satellite tracking list
Your tracking list is empty




NASA's NSSDC Master Catalog

Two Line Element Set (TLE):
1 59017U 24036V   25199.05534142  .00000116  00000-0  12894-4 0  9993
2 59017  53.1589  79.8917 0001295 116.5171 243.5966 15.39609922 79518
Source of the keplerian elements: AFSPC